Hourly Data Report for October 14, 2014

All times are specified in Local Standard Time (LST). Add 1 hour to adjust for Daylight Saving Time where and when it is observed.

CHARLOTTETOWN A
PRINCE EDWARD ISLAND

46°17'21.000" N
63°07'09.000" W
48.50 m
8300301
71706
YYG

Download Data

Hourly Data (October 2014)
Hourly Data Report for October 14, 2014
Temp Definition
°C
Dew Point Temp Definition
°C
Rel Hum Definition
%
Wind Dir Definition
10's deg

Wind Spd Definition
km/h
Visibility Definition
km
Stn Press Definition
kPa
Hmdx Definition


Wind Chill Definition


Weather Definition


TIME
00:00 Legend Double Dagger 10.6 9.0 90 24 13 24.1 101.68     LegendNANA
01:00 Legend Double Dagger 10.4 8.7 89 24 10 24.1 101.73     LegendNANA
02:00 Legend Double Dagger 9.5 8.0 90 22 10 24.1 101.69     Mainly Clear
03:00 Legend Double Dagger 8.9 7.5 91 22 13 24.1 101.68     LegendNANA
04:00 Legend Double Dagger 8.6 7.2 91 23 12 24.1 101.67     LegendNANA
05:00 Legend Double Dagger 9.2 8.3 94 24 14 24.1 101.71     Clear
06:00 Legend Double Dagger 9.2 8.5 95 24 12 24.1 101.70     LegendNANA
07:00 Legend Double Dagger 9.8 9.2 96 22 13 24.1 101.73     LegendNANA
08:00 Legend Double Dagger 11.6 10.4 92 24 11 24.1 101.74     Mainly Clear
09:00 Legend Double Dagger 13.2 10.6 84 24 18 24.1 101.73     LegendNANA
10:00 Legend Double Dagger 14.1 10.4 78 25 18 24.1 101.73     LegendNANA
11:00 Legend Double Dagger 14.6 10.5 76 22 21 24.1 101.67     Mainly Clear
12:00 Legend Double Dagger 15.5 11.9 79 23 21 24.1 101.61     LegendNANA
13:00 Legend Double Dagger 16.9 12.3 74 22 23 24.1 101.57     LegendNANA
14:00 Legend Double Dagger 17.3 12.3 72 22 22 24.1 101.55     Mostly Cloudy
15:00 Legend Double Dagger 18.0 11.9 67 22 23 24.1 101.50     LegendNANA
16:00 Legend Double Dagger 17.7 12.4 71 20 19 24.1 101.46     LegendNANA
17:00 Legend Double Dagger 16.5 13.5 82 21 18 24.1 101.42     Mostly Cloudy
18:00 Legend Double Dagger 16.2 13.5 84 21 25 24.1 101.39     LegendNANA
19:00 Legend Double Dagger 15.9 14.3 90 21 23 24.1 101.35     LegendNANA
20:00 Legend Double Dagger 16.1 14.5 90 20 27 24.1 101.29     Cloudy
21:00 Legend Double Dagger 16.3 15.0 92 21 24 24.1 101.27     LegendNANA
22:00 Legend Double Dagger 16.4 15.1 92 22 24 24.1 101.20     LegendNANA
23:00 Legend Double Dagger 15.8 14.5 92 24 24 24.1 101.21     Cloudy

Notes on Data Quality.

Legend

  • E = Estimated
  • M = Missing
  • NA = Not Available
  • ‡ = Partner data that is not subject to review by the National Climate Archives
Date modified: